Time,TemperatureF,DewpointF,PressureIn,WindDirection,WindDirectionDegrees,WindSpeedMPH,WindSpeedGustMPH,Humidity,HourlyPrecipIn,Conditions,Clouds,dailyrainin,SoftwareType,DateUTC
2013-10-22 00:05:00,44.0,44.0,30.14,North,-999,0.0,0.0,100,0.00,,,-99.99,WeatherLink 5.5,2013-10-22 07:05:00,
2013-10-22 01:00:00,43.7,43.7,30.14,North,-999,0.0,0.0,100,0.00,,,-99.99,WeatherLink 5.5,2013-10-22 08:00:00,
2013-10-22 01:05:00,43.7,43.7,30.14,North,-999,0.0,0.0,100,0.00,,,-99.99,WeatherLink 5.5,2013-10-22 08:05:00,
2013-10-22 02:00:00,42.9,42.9,30.14,North,-999,0.0,0.0,100,0.00,,,-99.99,WeatherLink 5.5,2013-10-22 09:00:00,
2013-10-22 02:05:00,42.9,42.9,30.14,North,-999,0.0,0.0,100,0.00,,,-99.99,WeatherLink 5.5,2013-10-22 09:05:00,
2013-10-22 03:00:00,42.8,42.8,30.14,North,-999,0.0,0.0,100,0.00,,,-99.99,WeatherLink 5.5,2013-10-22 10:00:00,
2013-10-22 03:05:00,42.8,42.8,30.14,North,-999,0.0,0.0,100,0.00,,,-99.99,WeatherLink 5.5,2013-10-22 10:05:00,
2013-10-22 04:00:00,42.6,42.6,30.14,North,-999,0.0,0.0,100,0.00,,,-99.99,WeatherLink 5.5,2013-10-22 11:00:00,
2013-10-22 04:05:00,42.6,42.6,30.14,North,-999,0.0,0.0,100,0.00,,,-99.99,WeatherLink 5.5,2013-10-22 11:05:00,
2013-10-22 05:00:00,42.8,42.8,30.13,North,-999,0.0,0.0,100,0.00,,,-99.99,WeatherLink 5.5,2013-10-22 12:00:00,
2013-10-22 05:05:00,42.8,42.8,30.13,North,-999,0.0,0.0,100,0.00,,,-99.99,WeatherLink 5.5,2013-10-22 12:05:00,
2013-10-22 06:00:00,42.4,42.4,30.13,North,-999,0.0,0.0,100,0.00,,,-99.99,WeatherLink 5.5,2013-10-22 13:00:00,
2013-10-22 06:05:00,42.4,42.4,30.13,North,-999,0.0,0.0,100,0.00,,,-99.99,WeatherLink 5.5,2013-10-22 13:05:00,
2013-10-22 07:00:00,42.3,42.3,30.13,North,-999,0.0,0.0,100,0.00,,,-99.99,WeatherLink 5.5,2013-10-22 14:00:00,
2013-10-22 07:05:00,42.3,42.3,30.13,North,-999,0.0,0.0,100,0.00,,,-99.99,WeatherLink 5.5,2013-10-22 14:05:00,
2013-10-22 08:00:00,42.5,42.5,30.13,North,-999,0.0,0.0,100,0.00,,,-99.99,WeatherLink 5.5,2013-10-22 15:00:00,
2013-10-22 08:05:00,42.5,42.5,30.13,North,-999,0.0,0.0,100,0.00,,,-99.99,WeatherLink 5.5,2013-10-22 15:05:00,
2013-10-22 09:00:00,43.3,43.3,30.13,North,-999,0.0,0.0,100,0.00,,,-99.99,WeatherLink 5.5,2013-10-22 16:00:00,
2013-10-22 09:05:00,43.3,43.3,30.13,North,-999,0.0,0.0,100,0.00,,,-99.99,WeatherLink 5.5,2013-10-22 16:05:00,
2013-10-22 10:00:00,44.4,44.4,30.13,North,-999,0.0,0.0,100,0.00,,,-99.99,WeatherLink 5.5,2013-10-22 17:00:00,
2013-10-22 10:05:00,44.4,44.4,30.13,North,-999,0.0,0.0,100,0.00,,,-99.99,WeatherLink 5.5,2013-10-22 17:05:00,
2013-10-22 11:00:00,46.5,46.5,30.12,North,-999,0.0,0.0,100,0.00,,,-99.99,WeatherLink 5.5,2013-10-22 18:00:00,
2013-10-22 11:05:00,46.5,46.5,30.12,North,-999,0.0,0.0,100,0.00,,,-99.99,WeatherLink 5.5,2013-10-22 18:05:00,
2013-10-22 12:00:00,48.0,48.0,30.11,North,-999,0.0,0.0,100,0.00,,,-99.99,WeatherLink 5.5,2013-10-22 19:00:00,
2013-10-22 12:05:00,48.0,48.0,30.11,North,-999,0.0,0.0,100,0.00,,,-99.99,WeatherLink 5.5,2013-10-22 19:05:00,
2013-10-22 13:00:00,48.7,48.7,30.10,North,-999,0.0,0.0,100,0.00,,,-99.99,WeatherLink 5.5,2013-10-22 20:00:00,
2013-10-22 13:05:00,48.7,48.7,30.10,North,-999,0.0,0.0,100,0.00,,,-99.99,WeatherLink 5.5,2013-10-22 20:05:00,
2013-10-22 14:00:00,49.6,49.6,30.09,North,-999,0.0,0.0,100,0.00,,,-99.99,WeatherLink 5.5,2013-10-22 21:00:00,
2013-10-22 14:05:00,49.6,49.6,30.09,North,-999,0.0,0.0,100,0.00,,,-99.99,WeatherLink 5.5,2013-10-22 21:05:00,
2013-10-22 15:00:00,49.7,49.7,30.08,North,-999,0.0,0.0,100,0.00,,,-99.99,WeatherLink 5.5,2013-10-22 22:00:00,
2013-10-22 15:05:00,49.7,49.7,30.08,North,-999,0.0,0.0,100,0.00,,,-99.99,WeatherLink 5.5,2013-10-22 22:05:00,
2013-10-22 16:00:00,49.5,49.5,30.07,North,-999,0.0,0.0,100,0.00,,,-99.99,WeatherLink 5.5,2013-10-22 23:00:00,
2013-10-22 16:05:00,49.5,49.5,30.07,North,-999,0.0,0.0,100,0.00,,,-99.99,WeatherLink 5.5,2013-10-22 23:05:00,
2013-10-22 17:00:00,49.2,49.2,30.06,North,-999,0.0,0.0,100,0.00,,,-99.99,WeatherLink 5.5,2013-10-23 00:00:00,
2013-10-22 17:05:00,49.2,49.2,30.06,North,-999,0.0,0.0,100,0.00,,,-99.99,WeatherLink 5.5,2013-10-23 00:05:00,
2013-10-22 18:00:00,48.4,48.4,30.04,North,-999,0.0,0.0,100,0.00,,,-99.99,WeatherLink 5.5,2013-10-23 01:00:00,
2013-10-22 18:05:00,48.4,48.4,30.04,North,-999,0.0,0.0,100,0.00,,,-99.99,WeatherLink 5.5,2013-10-23 01:05:00,
2013-10-22 19:00:00,48.3,48.3,30.05,North,-999,0.0,0.0,100,0.00,,,-99.99,WeatherLink 5.5,2013-10-23 02:00:00,
2013-10-22 19:05:00,48.3,48.3,30.05,North,-999,0.0,0.0,100,0.00,,,-99.99,WeatherLink 5.5,2013-10-23 02:05:00,
2013-10-22 20:00:00,49.0,49.0,30.04,North,-999,0.0,0.0,100,0.00,,,-99.99,WeatherLink 5.5,2013-10-23 03:00:00,
2013-10-22 20:05:00,49.0,49.0,30.04,North,-999,0.0,0.0,100,0.00,,,-99.99,WeatherLink 5.5,2013-10-23 03:05:00,
2013-10-22 21:00:00,48.1,48.1,30.05,North,-999,0.0,0.0,100,0.00,,,-99.99,WeatherLink 5.5,2013-10-23 04:00:00,
2013-10-22 21:05:00,48.1,48.1,30.05,North,-999,0.0,0.0,100,0.00,,,-99.99,WeatherLink 5.5,2013-10-23 04:05:00,
2013-10-22 22:00:00,48.2,48.2,30.05,North,-999,0.0,0.0,100,0.00,,,-99.99,WeatherLink 5.5,2013-10-23 05:00:00,
2013-10-22 22:05:00,48.2,48.2,30.05,North,-999,0.0,0.0,100,0.00,,,-99.99,WeatherLink 5.5,2013-10-23 05:05:00,
2013-10-22 23:00:00,48.5,48.5,30.06,North,-999,0.0,0.0,100,0.00,,,-99.99,WeatherLink 5.5,2013-10-23 06:00:00,
2013-10-22 23:05:00,48.5,48.5,30.06,North,-999,0.0,0.0,100,0.00,,,-99.99,WeatherLink 5.5,2013-10-23 06:05:00,